Weather History for KHBG - January, 2013

Change the Weather History Date:

Monday, January 28, 2013

  Actual Average Record
Temperature  
Mean Temperature 68 °F 49 °F  
Max Temperature 78 °F 60 °F 83 °F (1957)
Min Temperature 57 °F 37 °F 20 °F (1963)
Degree Days  
Heating Degree Days 0 17  
Month to date heating degree days 353 469  
Since 1 July heating degree days 1055 1254  
Cooling Degree Days 3 0  
Month to date cooling degree days 20 0  
Year to date cooling degree days 20 0  
Growing Degree Days 18 (Base 50)    
Moisture  
Dew Point 58 °F    
Average Humidity 73    
Maximum Humidity 97    
Minimum Humidity 48    
Precipitation  
Precipitation 0.00 in 0.20 in 4.33 in (1994)
Month to date precipitation 6.08 5.10  
Year to date precipitation 6.08 5.10  
Sea Level Pressure  
Sea Level Pressure 30.22 in    
Wind  
Wind Speed 7 mph (SE)    
Max Wind Speed 14 mph    
Max Gust Speed 17 mph    
Visibility 6 miles    
Events Fog    
T = Trace of Precipitation, MM = Missing Value Source: NWS Daily Summary

Daily Weather History Graph

Daily Weather History Graph

Search for Another Location

Airport or City:

Trip Planner

Search our weather history database for the weather conditions in past years. The results will help you decide how hot, cold, wet, or windy it might be!

Date:

Astronomy

Jan. 28, 2013 Rise Set
Actual Time 6:51 AM CST 5:28 PM CST
Civil Twilight 6:25 AM CST 5:54 PM CST
Nautical Twilight 5:56 AM CST 6:23 PM CST
Astronomical Twilight 5:28 AM CST 6:52 PM CST
Moon 7:12 PM CST (1/28) 7:26 AM CST (1/28)
Length of Visible Light 11h 28m
Length of Day
10h 37m
Full, 98% of the Moon is Illuminated
Jan 28
Full
Feb 3
Last Quarter
Feb 10
New
Feb 17
First Quarter
Feb 25
Full

Hourly Weather History & Observations

Time (CST) Temp. Dew Point Humidity Pressure Visibility Wind Dir Wind Speed Gust Speed Precip Events Conditions
12:53 AM 60.1 °F 57.9 °F 93% 30.26 in 5.0 mi SSE 5.8 mph - N/A   Mostly Cloudy
1:00 AM 60.8 °F 57.2 °F 88% 30.26 in 5.0 mi SE 4.6 mph - N/A   Scattered Clouds
1:28 AM 59.0 °F 57.2 °F 94% 30.25 in 2.5 mi Calm Calm - N/A   Mostly Cloudy
1:37 AM 57.2 °F 55.4 °F 94% 30.25 in 1.0 mi Calm Calm - N/A   Mostly Cloudy
1:45 AM 57.2 °F 55.4 °F 94% 30.24 in 0.2 mi ESE 3.5 mph - N/A Fog Fog
1:53 AM 57.9 °F 55.0 °F 90% 30.24 in 0.8 mi ESE 3.5 mph - N/A   Overcast
1:57 AM 57.2 °F 55.4 °F 94% 30.24 in 2.0 mi Calm Calm - N/A   Overcast
2:49 AM 60.8 °F 57.2 °F 88% 30.24 in 3.0 mi SE 6.9 mph - N/A   Overcast
2:53 AM 60.1 °F 57.9 °F 93% 30.23 in 3.0 mi SE 9.2 mph - N/A   Overcast
3:00 AM 60.8 °F 57.2 °F 88% 30.23 in 2.5 mi SE 11.5 mph - N/A   Overcast
3:16 AM 60.8 °F 57.2 °F 88% 30.22 in 1.5 mi SE 11.5 mph - N/A   Overcast
3:36 AM 60.8 °F 57.2 °F 88% 30.23 in 2.5 mi SSE 8.1 mph - N/A   Overcast
3:44 AM 60.8 °F 57.2 °F 88% 30.24 in 3.0 mi South 5.8 mph - N/A   Overcast
3:53 AM 60.1 °F 57.9 °F 93% 30.24 in 4.0 mi South 5.8 mph - N/A   Overcast
4:14 AM 60.8 °F 57.2 °F 88% 30.24 in 5.0 mi South 4.6 mph - N/A   Overcast
4:53 AM 61.0 °F 57.9 °F 90% 30.24 in 4.0 mi Calm Calm - N/A   Overcast
5:53 AM 61.0 °F 57.9 °F 90% 30.26 in 3.0 mi Calm Calm - N/A   Overcast
6:22 AM 60.8 °F 59.0 °F 94% 30.26 in 2.5 mi East 4.6 mph - N/A   Overcast
6:37 AM 60.8 °F 59.0 °F 94% 30.27 in 3.0 mi ESE 6.9 mph - N/A   Overcast
6:53 AM 60.1 °F 57.9 °F 93% 30.26 in 2.5 mi ESE 6.9 mph - N/A   Overcast
7:53 AM 60.1 °F 57.9 °F 93% 30.27 in 4.0 mi SSE 9.2 mph - N/A   Overcast
8:49 AM 60.8 °F 57.2 °F 88% 30.28 in 5.0 mi SE 5.8 mph - N/A   Overcast
8:53 AM 61.0 °F 57.9 °F 90% 30.28 in 5.0 mi SE 5.8 mph - N/A   Overcast
10:28 AM 66.2 °F 59.0 °F 78% 30.29 in 10.0 mi SSE 8.1 mph - N/A   Overcast
10:53 AM 69.1 °F 60.1 °F 73% 30.28 in - SSE 10.4 mph - N/A   Unknown
11:53 AM 71.1 °F 60.1 °F 68% 30.25 in 10.0 mi SSE 5.8 mph - N/A   Mostly Cloudy
12:53 PM 75.0 °F 59.0 °F 57% 30.22 in 10.0 mi South 11.5 mph 17.3 mph N/A   Overcast
1:53 PM 77.0 °F 57.9 °F 52% 30.19 in 10.0 mi South 11.5 mph - N/A   Scattered Clouds
2:53 PM 78.1 °F 57.0 °F 48% 30.17 in 10.0 mi SSW 11.5 mph - N/A   Mostly Cloudy
3:53 PM 77.0 °F 57.0 °F 50% 30.17 in 10.0 mi SSE 10.4 mph - N/A   Mostly Cloudy
4:53 PM 73.9 °F 59.0 °F 59% 30.17 in 10.0 mi SSE 9.2 mph - N/A   Clear
5:53 PM 69.1 °F 59.0 °F 70% 30.17 in 10.0 mi South 4.6 mph - N/A   Clear
6:53 PM 64.0 °F 57.9 °F 80% 30.17 in 10.0 mi SE 3.5 mph - N/A   Clear
7:53 PM 63.0 °F 57.0 °F 81% 30.17 in 10.0 mi SSE 4.6 mph - N/A   Clear
8:53 PM 63.0 °F 59.0 °F 87% 30.17 in 10.0 mi SE 4.6 mph - N/A   Clear
9:09 PM 62.6 °F 59.0 °F 88% 30.17 in 10.0 mi SSE 5.8 mph - N/A   Mostly Cloudy
9:53 PM 64.9 °F 61.0 °F 87% 30.17 in 9.0 mi SE 3.5 mph - N/A   Overcast
10:23 PM 64.4 °F 62.6 °F 94% 30.17 in 9.0 mi SE 5.8 mph - N/A   Overcast
10:53 PM 66.0 °F 63.0 °F 90% 30.16 in 7.0 mi SE 6.9 mph - N/A   Overcast
11:53 PM 66.0 °F 63.0 °F 90% 30.14 in 8.0 mi SE 8.1 mph - N/A   Overcast